Regional Weather Roundup
Issued by NWS

Current Version | Previous Version | Text Only | Print | Product List | Glossary On
Versions: 1 2 3 4 5 6 7 8 9 10 11 12 13 14 15 16 17 18 19 20 21 22 23 24 25 26 27 28 29 30 31 32 33 34 35 36 37 38 39 40 41 42 43 44 45 46 47 48 49 50
000
ASUS44 KFWD 281815
RWRTX
NORTH TEXAS HOURLY WEATHER ROUNDUP
NATIONAL WEATHER SERVICE FORT WORTH TX
100 PM CDT WED OCT 28 2020

NOTE: "FAIR" INDICATES FEW OR NO CLOUDS BELOW 12,000 FEET WITH NO
SIGNIFICANT WEATHER AND/OR OBSTRUCTIONS TO VISIBILITY.

TXZ118-119-281900-
DALLAS/FORT WORTH METROPLEX

CITY           SKY/WX    TMP DP  RH WIND       PRES   REMARKS
DFW AIRPORT    CLOUDY    41  39  93 W13       29.93S WCI  34
6HR MIN TEMP:  37; 6HR MAX TEMP:  42; 6HR PCP:  0.34;

DALLAS LOVE    LGT RAIN  42  39  89 W10       29.94S WCI  36
6HR MIN TEMP:  40; 6HR MAX TEMP:  43; 6HR PCP:  0.17;

FTW MEACHAM    CLOUDY    40  38  93 W13       29.94F WCI  32
6HR MIN TEMP:  36; 6HR MAX TEMP:  40; 6HR PCP:  0.12;

DAL-EXECUTIVE  CLOUDY    42  38  85 W13       29.92F WCI  35
6HR MIN TEMP:  38; 6HR MAX TEMP:  42; 6HR PCP:  0.10;

FTW-ALLIANCE   CLOUDY    41  38  89 W15       29.94S WCI  33
6HR MIN TEMP:  37; 6HR MAX TEMP:  41; 6HR PCP:  0.09;

FTW-NAS-JRB    CLOUDY    43  38  82 NW13G21   29.95F WCI  36
6HR MIN TEMP:  38; 6HR MAX TEMP:  43; 6HR PCP:  0.15;

FTW-SPINKS     CLOUDY    43  39  87 W14       29.97S WCI  36
ARLINGTON      CLOUDY    43  39  86 W7G16     29.95S WCI  39
6HR MIN TEMP:  39; 6HR MAX TEMP:  43; 6HR PCP:  0.19;

GRAND PRAIRIE  CLOUDY    39  39 100 W6        29.97S WCI  35
ADDISON        CLOUDY    45  43  93 W10G17    29.94S WCI  39
MESQUITE       RAIN      41  41 100 W12       29.93S WCI  34
LANCASTER      RAIN      41  39  94 W10       29.95S WCI  35
6HR MIN TEMP:  38; 6HR MAX TEMP:  42; 6HR PCP:  0.08;

$$

TXZ091>094-102>105-117-120-121-131>134-281900-
NORTH CENTRAL TEXAS

CITY           SKY/WX    TMP DP  RH WIND       PRES   REMARKS
SHRMAN/DENISON CLOUDY    43  41  93 W7        29.91F WCI  39
GAINESVILLE    CLOUDY    40  38  95 W12       29.93F WCI  33
6HR MIN TEMP:  36; 6HR MAX TEMP:  40; 6HR PCP:  0.14;

BOWIE          CLOUDY    37  37  97 W13       29.94F WCI  29
6HR MIN TEMP:  34; 6HR MAX TEMP:  38; 6HR PCP:  0.42;

BRIDGEPORT     CLOUDY    39  38  95 W12G17    29.98F WCI  32
6HR MIN TEMP:  36; 6HR MAX TEMP:  39;

DECATUR        CLOUDY    38  37  95 W13G18    29.93F WCI  31
6HR MIN TEMP:  35; 6HR MAX TEMP:  39; 6HR PCP:  0.24;

DENTON         CLOUDY    41  38  89 NW10      29.94F WCI  35
6HR MIN TEMP:  37; 6HR MAX TEMP:  41; 6HR PCP:  0.09;

MCKINNEY       CLOUDY    43  40  89 W12       29.91F WCI  37
6HR MIN TEMP:  39; 6HR MAX TEMP:  43; 6HR PCP:  0.18;

BONHAM         HVY RAIN  42  41  97 NW7       29.89F FOG     WCI  37
6HR MIN TEMP:  40; 6HR MAX TEMP:  43; 6HR PCP:  0.17;

GREENVILLE     RAIN      45  45 100 W6        29.91S
ROCKWALL       LGT RAIN  43  43 100 N5        29.91F WCI  40
6HR MIN TEMP:  39; 6HR MAX TEMP:  43; 6HR PCP:  0.18;

TERRELL        RAIN      42  42 100 W10       29.92F FOG     WCI  36
6HR MIN TEMP:  40; 6HR MAX TEMP:  43; 6HR PCP:  0.58;

WAXAHACHIE     CLOUDY    40  40 100 W9G17     29.95S WCI  34
6HR MIN TEMP:  37; 6HR MAX TEMP:  40; 6HR PCP:  0.06;

CLEBURNE       PTSUNNY   41  39  93 W12G21    29.97F WCI  34
GRANBURY       CLOUDY    42  38  84 W15G24    29.99F WCI  35
6HR MIN TEMP:  37; 6HR MAX TEMP:  42; 6HR PCP:  0.10;

$$

TXZ083>090-098>101-113>116-127>130-139>142-154-155-281900-
WESTERN NORTH TEXAS

CITY           SKY/WX    TMP DP  RH WIND       PRES   REMARKS
WICHITA FALLS  CLOUDY    38  36  92 W10       29.95F WCI  31
6HR MIN TEMP:  34; 6HR MAX TEMP:  38; 6HR PCP:  0.15;

VERNON         CLOUDY    38  37  94 N7        29.97F WCI  33
6HR MIN TEMP:  29; 6HR MAX TEMP:  61; 6HR PCP:  0.01;

ABILENE        CLOUDY    40  30  67 W14       30.00F WCI  32
6HR MIN TEMP:  32; 6HR MAX TEMP:  40;

ABILENE-DYESS  CLOUDY    40  30  69 W16       29.99F WCI  31
6HR MIN TEMP:  32; 6HR MAX TEMP:  40;

GRAHAM         CLOUDY    40  37  89 W10G18    29.98S WCI  33
6HR MIN TEMP:  33; 6HR MAX TEMP:  40;

BRECKENRIDGE   CLOUDY    44  37  77 W15       29.99F HAZE    WCI  37
6HR MIN TEMP:  35; 6HR MAX TEMP:  44; 6HR PCP:  0.01;

CISCO            N/A     39  36  87 W14G21    29.97F WCI  31
EASTLAND       CLOUDY    40  34  80 W13G20    29.99F WCI  32
6HR MIN TEMP:  32; 6HR MAX TEMP:  40; 6HR PCP:  0.05;

RANGER         CLOUDY    41  36  83 W12G22    29.98F WCI  34
6HR MIN TEMP:  33; 6HR MAX TEMP:  41; 6HR PCP:  0.06;

MINERAL WELLS  CLOUDY    40  37  89 W12       29.96F WCI  33
6HR MIN TEMP:  34; 6HR MAX TEMP:  40; 6HR PCP:  0.05;

STEPHENVILLE   CLOUDY    40  36  83 W13G20    30.00F WCI  33
6HR MIN TEMP:  35; 6HR MAX TEMP:  40;

COMANCHE       CLOUDY    41  37  86 NW14G20   30.00F WCI  34
6HR MIN TEMP:  34; 6HR MAX TEMP:  41; 6HR PCP:  0.01;

BROWNWOOD        N/A     41  34  75 MISG      30.01F
COLEMAN        CLOUDY    42  33  71 W14G20    30.01F WCI  34
6HR MIN TEMP:  33; 6HR MAX TEMP:  42;

BRADY          PTSUNNY   45  34  65 NW18      30.00F WCI  37
$$

TXZ143>147-156>162-174-175-281900-
CENTRAL TEXAS

CITY           SKY/WX    TMP DP  RH WIND       PRES   REMARKS
WACO           CLOUDY    45  39  79 W13       29.97F WCI  39
6HR MIN TEMP:  39; 6HR MAX TEMP:  45; 6HR PCP:  0.14;

WACO-TSTC      CLOUDY    45  41  87 W14G23    29.97F WCI  38
WACO-MCGREGOR    N/A    N/A N/A N/A NW16      29.97F
                                      6HR PCP: TRACE;

HILLSBORO      CLOUDY    42  42 100 W15       29.95F WCI  34
6HR MIN TEMP:  38; 6HR MAX TEMP:  42; 6HR PCP:  0.22;

CORSICANA      CLOUDY    43  41  93 W14       29.95F WCI  36
6HR MIN TEMP:  41; 6HR MAX TEMP:  44; 6HR PCP:  0.58;

MEXIA          CLOUDY    42  42  99 W10G20    29.94S WCI  36
6HR MIN TEMP:  39; 6HR MAX TEMP:  44; 6HR PCP:  0.42;

HEARNE         CLOUDY    45  42  90 NW10G20   29.97F WCI  40
6HR MIN TEMP:  41; 6HR MAX TEMP:  45; 6HR PCP:  0.16;

CAMERON        CLOUDY    46  41  83 NW15G22   29.96F WCI  40
6HR MIN TEMP:  40; 6HR MAX TEMP:  46; 6HR PCP:  0.05;

TEMPLE         CLOUDY    48  41  76 NW16G22   29.95F
6HR MIN TEMP:  38; 6HR MAX TEMP:  47; 6HR PCP:  1.47;

KILLEEN        FAIR      48  38  70 NW18G24   29.95F
6HR MIN TEMP:  36; 6HR MAX TEMP:  48; 6HR PCP:  0.11;

KILLEEN-SKYLRK FAIR      49  40  71 NW13G20   29.96F
6HR MIN TEMP:  37; 6HR MAX TEMP:  49; 6HR PCP: TRACE;

FORT HOOD      FAIR      47  39  73 W17       29.95F
6HR MIN TEMP:  37; 6HR MAX TEMP:  47; 6HR PCP:  0.03;

GATESVILLE     FAIR      46  37  71 W10G20    29.99F
HAMILTON       CLOUDY    43  38  81 NW20      29.99F WCI  34
6HR MIN TEMP:  36; 6HR MAX TEMP:  43; 6HR PCP:  0.01;

LAMPASAS       FAIR      47  37  68 NW14G21   29.95F
6HR MIN TEMP:  36; 6HR MAX TEMP:  47;

$$

TXZ095>097-106>112-122>126-135>138-148>153-164>167-281900-
EAST TEXAS

CITY           SKY/WX    TMP DP  RH WIND       PRES   REMARKS
PARIS          LGT RAIN  45  43  93 N8G21     29.86F
6HR MIN TEMP:  44; 6HR MAX TEMP:  51; 6HR PCP:  0.43;

SULPHUR SPRNGS RAIN      45  45  99 NW7       29.89F
6HR MIN TEMP:  44; 6HR MAX TEMP:  49; 6HR PCP:  0.14;

MOUNT PLEASANT CLOUDY    53  51  94 W9        29.87F
6HR MIN TEMP:  53; 6HR MAX TEMP:  55; 6HR PCP:  0.75;

GILMER         CLOUDY    50  49  96 W9        29.86S FOG
6HR MIN TEMP:  50; 6HR MAX TEMP:  53;

MINEOLA        DRIZZLE   45  43  93 N3        29.87F
TYLER          LGT RAIN  46  44  93 N5        29.86F
6HR MIN TEMP:  46; 6HR MAX TEMP:  53; 6HR PCP:  0.11;

LONGVIEW       HVY RAIN  54  52  93 NW10      29.83F VSB 1
6HR MIN TEMP:  53; 6HR MAX TEMP:  55; 6HR PCP:  0.18;

MARSHALL       CLOUDY    55  53  94 NW6       29.84F
6HR MIN TEMP:  53; 6HR MAX TEMP:  56; 6HR PCP:  0.06;

ATHENS         LGT RAIN  43  43 100 N5        29.89F
PALESTINE      LGT RAIN  45  45 100 NW6       29.91F
JACKSONVILLE   DRIZZLE   46  46 100 NW13      29.88F WCI  40
HENDERSON      CLOUDY    53  52  95 W8        29.86F
6HR MIN TEMP:  53; 6HR MAX TEMP:  55;

CENTER         LGT RAIN  63  59  88 W6        29.82F
NACOGDOCHES    CLOUDY    55  54  96 W9        29.85F
6HR MIN TEMP:  55; 6HR MAX TEMP:  59;

LUFKIN         LGT RAIN  53  50  89 NW13      29.84F
6HR MIN TEMP:  53; 6HR MAX TEMP:  61; 6HR PCP:  0.14;

$$

SUPPLEMENTAL OBSERVATIONS (NWS FORT WORTH AREA)

CITY           SKY/WX    TMP DP  RH WIND       PRES   REMARKS
CADDO GRASSLND   N/A     43  41  93 NW3         N/A
LBJ GRASSLAND    N/A     39  37  93 W9          N/A  WCI  33


USA.gov is the U.S. government's official web portal to all federal, state and local government web resources and services.